This demonstration page uses our WeatherBlox Daily Observations layout. Learn more.

Left ArrowRight Arrow

41.12389, -100.76542

Hourly Observations for November 3, 2015

Temp ( °F °C ) Dew Point ( °F °C ) Humidity (%) Winds ( mph kmh ) Pressure ( in mb ) Visibility ( mi km ) Precip ( " mm )
12:53 am 00:53 Clear 48 8.9 42 5.6 80 80 E 9 15 29.72 1007 10 16 0.00 0.00
1:53 am 01:53 Clear 49 9.4 43 6.1 80 80 E 9 15 29.72 1006 10 16 0.00 0.00
2:53 am 02:53 Clear 47 8.3 43 6.1 86 86 ESE 10 17 29.70 1006 10 16 0.00 0.00
3:53 am 03:53 Clear 47 8.3 43 6.1 86 86 ESE 10 17 29.69 1006 10 16 0.00 0.00
4:53 am 04:53 Clear 44 6.7 41 5 89 89 ENE 5 7 29.70 1006 10 16 0.00 0.00
5:53 am 05:53 Clear 42 5.6 40 4.4 92 92 E 6 9 29.73 1007 10 16 0.00 0.00
6:53 am 06:53 Clear 39 3.9 38 3.3 96 96 ESE 7 11 29.75 1007 10 16 0.00 0.00
7:13 am 07:13 Clear with Mist and Fog 39 3.9 38 3.3 96 96 E 7 11 29.80 1009 1 2 0.00 0.00
7:15 am 07:15 Mostly Cloudy with Mist and Fog 39 3.9 38 3.3 96 96 E 6 9 29.80 1009 1 1 0.00 0.00
7:33 am 07:33 Partly Cloudy with Mist and Fog 39 3.9 38 3.3 96 96 ESE 6 9 29.80 1009 1 2 0.00 0.00
7:53 am 07:53 Partly Cloudy with Mist and Fog 39 3.9 38 3.3 96 96 ESE 7 11 29.76 1008 2 2 0.00 0.00
7:58 am 07:58 Mostly Cloudy with Mist and Fog 41 5 40 4.4 96 96 ESE 5 7 29.83 1010 3 5 0.00 0.00
8:51 am 08:51 Cloudy 46 8 45 7 93 93 S 10 17 29.80 1009 10 16 0.00 0.00
8:53 am 08:53 Cloudy 47 8.3 45 7.2 93 93 S 9 15 29.78 1008 10 16 0.00 0.00
9:53 am 09:53 Cloudy 48 8.9 46 7.8 93 93 SSE 7 11 29.78 1008 10 16 0.00 0.00
10:40 am 10:40 Mostly Cloudy 50 10 46 8 88 88 S 6 9 29.77 1008 10 16 0.00 0.00
10:53 am 10:53 Mostly Sunny 51 10.6 46 7.8 83 83 Calm 29.75 1008 10 16 0.00 0.00
11:53 am 11:53 Sunny 58 14.4 47 8.3 67 67 SSE 5 7 29.72 1006 10 16 0.00 0.00
12:53 pm 12:53 Sunny 64 17.8 47 8.3 54 54 SSE 6 9 29.69 1005 10 16 0.00 0.00
1:53 pm 13:53 Sunny 66 18.9 47 8.3 50 50 SE 7 11 29.66 1004 10 16 0.00 0.00
2:53 pm 14:53 Sunny 70 21.1 48 8.9 46 46 SE 7 11 29.65 1004 10 16 0.00 0.00
3:53 pm 15:53 Sunny 70 21.1 46 7.8 42 42 SSE 9 15 29.65 1004 10 16 0.00 0.00
4:53 pm 16:53 Sunny 68 20 46 7.8 45 45 SE 8 13 29.66 1004 10 16 0.00 0.00
5:53 pm 17:53 Clear 57 13.9 43 6.1 60 60 E 7 11 29.68 1005 10 16 0.00 0.00
6:53 pm 18:53 Clear 54 12.2 43 6.1 67 67 ESE 12 19 29.69 1005 10 16 0.00 0.00
7:53 pm 19:53 Clear 63 17.2 44 6.7 50 50 SSE 12 19 29.68 1005 10 16 0.00 0.00
8:53 pm 20:53 Clear 61 16.1 44 6.7 54 54 SSE 10 17 29.68 1005 10 16 0.00 0.00
9:53 pm 21:53 Clear 61 16.1 44 6.7 54 54 SE 8 13 29.67 1005 10 16 0.00 0.00
10:53 pm 22:53 Clear 60 15.6 43 6.1 53 53 S 14 22 29.67 1005 10 16 0.00 0.00
11:53 pm 23:53 Clear 58 14.4 43 6.1 58 58 S 17 28 29.66 1005 10 16 0.00 0.00

Powered by AerisWeather